• In Deutschland
  • Länderverzeichnis
  • Für 7 Tage
  • Wassertemperatur
  • Satellitenkarten
  • Wetterkarte
  • Widgets
  • user-avatar
    Anmelden

    Stündliche Wetter Galata

    Heute, 16 Januar, Dienstag

    Zeit Temperatur Niederschläge Wind Luftdruck Luftfeuchtigkeit
    00:00 -2°C° 0,4 mm 2 m/S 762 mmHg 93%
    01:00 -2°C° 0,4 mm 2 m/S 761 mmHg 94%
    02:00 -1°C° 0 mm 2 m/S 761 mmHg 96%
    03:00 -1°C° 0,5 mm 2 m/S 760 mmHg 96%
    04:00 -1°C° 0,5 mm 3 m/S 760 mmHg 96%
    05:00 0°C° 0,5 mm 3 m/S 759 mmHg 97%
    06:00 -1°C° 0,4 mm 3 m/S 759 mmHg 96%
    07:00 -1°C° 0,4 mm 3 m/S 758 mmHg 96%
    08:00 -2°C° 0,4 mm 4 m/S 758 mmHg 96%
    09:00 -2°C° 0,1 mm 4 m/S 758 mmHg 94%
    10:00 -2°C° 0,1 mm 4 m/S 757 mmHg 92%
    11:00 -2°C° 0,1 mm 4 m/S 757 mmHg 90%
    12:00 -1°C° 0 mm 3 m/S 757 mmHg 89%
    13:00 0°C° 0 mm 3 m/S 756 mmHg 88%
    14:00 +1°C° 0 mm 2 m/S 756 mmHg 87%
    15:00 +1°C° 0 mm 2 m/S 755 mmHg 88%
    16:00 +1°C° 0 mm 1 m/S 755 mmHg 90%
    17:00 +1°C° 0 mm 1 m/S 754 mmHg 91%
    18:00 +1°C° 0 mm 1 m/S 754 mmHg 92%
    19:00 -1°C° 0 mm 2 m/S 753 mmHg 92%
    20:00 0°C° 0 mm 3 m/S 753 mmHg 93%
    21:00 0°C° 0 mm 3 m/S 752 mmHg 93%
    22:00 0°C° 0 mm 4 m/S 752 mmHg 94%
    23:00 0°C° 0 mm 4 m/S 751 mmHg 95%

    Morgen, 17 Januar, Mittwoch

    Zeit Temperatur Niederschläge Wind Luftdruck Luftfeuchtigkeit
    00:00 0°C° 0 mm 4 m/S 751 mmHg 94%
    01:00 +1°C° 0 mm 4 m/S 751 mmHg 94%
    02:00 +1°C° 0 mm 4 m/S 750 mmHg 93%
    03:00 +1°C° 0 mm 4 m/S 750 mmHg 92%
    04:00 +1°C° 0 mm 4 m/S 749 mmHg 91%
    05:00 0°C° 0 mm 5 m/S 749 mmHg 90%
    06:00 +1°C° 0 mm 5 m/S 748 mmHg 89%
    07:00 +1°C° 0 mm 5 m/S 748 mmHg 88%
    08:00 +1°C° 0 mm 5 m/S 748 mmHg 87%
    09:00 +2°C° 0 mm 5 m/S 747 mmHg 86%
    10:00 +3°C° 0 mm 5 m/S 747 mmHg 85%
    11:00 +5°C° 0 mm 5 m/S 746 mmHg 84%
    12:00 +5°C° 0 mm 6 m/S 745 mmHg 82%
    13:00 +7°C° 0 mm 6 m/S 744 mmHg 81%
    14:00 +8°C° 0 mm 7 m/S 743 mmHg 79%
    15:00 +6°C° 0 mm 7 m/S 742 mmHg 80%
    16:00 +6°C° 0 mm 8 m/S 741 mmHg 81%
    17:00 +6°C° 0 mm 8 m/S 740 mmHg 81%
    18:00 +7°C° 0,2 mm 9 m/S 739 mmHg 82%
    19:00 +7°C° 0,2 mm 9 m/S 738 mmHg 83%
    20:00 +8°C° 0,2 mm 10 m/S 738 mmHg 84%
    21:00 +7°C° 1 mm 10 m/S 737 mmHg 85%
    22:00 +6°C° 1 mm 9 m/S 737 mmHg 86%
    23:00 +6°C° 1 mm 9 m/S 737 mmHg 86%

    übermorgen, 18 Januar, Donnerstag

    Zeit Temperatur Niederschläge Wind Luftdruck Luftfeuchtigkeit
    00:00 +5°C° 0,1 mm 10 m/S 737 mmHg 84%
    01:00 +2°C° 0,1 mm 11 m/S 737 mmHg 82%
    02:00 0°C° 0,1 mm 12 m/S 738 mmHg 80%
    03:00 0°C° 0,3 mm 13 m/S 739 mmHg 80%
    04:00 -1°C° 0,3 mm 13 m/S 739 mmHg 80%
    05:00 -1°C° 0,3 mm 13 m/S 740 mmHg 80%
    06:00 -1°C° 0,3 mm 13 m/S 742 mmHg 77%
    07:00 -2°C° 0,3 mm 13 m/S 743 mmHg 75%
    08:00 -2°C° 0,3 mm 13 m/S 744 mmHg 72%
    09:00 -2°C° 0 mm 13 m/S 745 mmHg 68%
    10:00 -2°C° 0 mm 12 m/S 746 mmHg 65%
    11:00 -1°C° 0 mm 12 m/S 748 mmHg 61%
    12:00 -1°C° 0 mm 12 m/S 748 mmHg 60%
    13:00 0°C° 0 mm 12 m/S 749 mmHg 59%
    14:00 +1°C° 0 mm 11 m/S 749 mmHg 58%
    15:00 +1°C° 0 mm 11 m/S 750 mmHg 61%
    16:00 0°C° 0 mm 10 m/S 751 mmHg 63%
    17:00 0°C° 0 mm 9 m/S 752 mmHg 66%
    18:00 -1°C° 0 mm 9 m/S 752 mmHg 68%
    19:00 -1°C° 0 mm 9 m/S 753 mmHg 70%
    20:00 -2°C° 0 mm 8 m/S 754 mmHg 72%
    21:00 -2°C° 0 mm 7 m/S 754 mmHg 74%
    22:00 -2°C° 0 mm 6 m/S 754 mmHg 75%
    23:00 -1°C° 0 mm 5 m/S 754 mmHg 76%

    19 Januar, Freitag

    Zeit Temperatur Niederschläge Wind Luftdruck Luftfeuchtigkeit
    00:00 -1°C° 0 mm 5 m/S 754 mmHg 75%
    01:00 -1°C° 0 mm 5 m/S 754 mmHg 74%
    02:00 -1°C° 0 mm 5 m/S 753 mmHg 74%
    03:00 -2°C° 0 mm 6 m/S 753 mmHg 70%
    04:00 -1°C° 0 mm 7 m/S 753 mmHg 66%
    05:00 -1°C° 0 mm 7 m/S 752 mmHg 62%
    06:00 0°C° 0 mm 7 m/S 752 mmHg 60%
    07:00 0°C° 0 mm 7 m/S 752 mmHg 58%
    08:00 0°C° 0 mm 7 m/S 752 mmHg 56%
    09:00 +3°C° 0 mm 7 m/S 752 mmHg 54%
    10:00 +4°C° 0 mm 7 m/S 752 mmHg 51%
    11:00 +6°C° 0 mm 7 m/S 752 mmHg 49%
    12:00 +6°C° 0 mm 7 m/S 752 mmHg 49%
    13:00 +8°C° 0 mm 6 m/S 752 mmHg 49%
    14:00 +9°C° 0 mm 6 m/S 752 mmHg 50%
    15:00 +8°C° 0 mm 5 m/S 752 mmHg 54%
    16:00 +6°C° 0 mm 5 m/S 752 mmHg 58%
    17:00 +5°C° 0 mm 4 m/S 752 mmHg 62%
    18:00 +5°C° 0 mm 4 m/S 752 mmHg 62%
    19:00 +5°C° 0 mm 4 m/S 752 mmHg 61%
    20:00 +3°C° 0 mm 5 m/S 752 mmHg 60%
    21:00 +3°C° 0 mm 5 m/S 752 mmHg 61%
    22:00 +3°C° 0 mm 5 m/S 752 mmHg 62%
    23:00 +2°C° 0 mm 5 m/S 752 mmHg 63%

    20 Januar, Samstag

    Zeit Temperatur Niederschläge Wind Luftdruck Luftfeuchtigkeit
    00:00 +3°C° 0 mm 4 m/S 752 mmHg 64%
    01:00 +3°C° 0 mm 4 m/S 752 mmHg 65%
    02:00 +3°C° 0 mm 4 m/S 752 mmHg 66%
    03:00 +3°C° 0 mm 4 m/S 752 mmHg 68%
    04:00 +3°C° 0 mm 4 m/S 752 mmHg 69%
    05:00 +3°C° 0 mm 4 m/S 752 mmHg 71%
    06:00 +3°C° 0 mm 4 m/S 752 mmHg 74%
    07:00 +3°C° 0 mm 4 m/S 752 mmHg 78%
    08:00 +2°C° 0 mm 5 m/S 752 mmHg 82%
    09:00 +4°C° 0 mm 6 m/S 752 mmHg 82%
    10:00 +7°C° 0 mm 6 m/S 752 mmHg 82%
    11:00 +9°C° 0 mm 7 m/S 751 mmHg 82%
    12:00 +10°C° 0 mm 8 m/S 751 mmHg 80%
    13:00 +10°C° 0 mm 8 m/S 751 mmHg 78%
    14:00 +11°C° 0 mm 8 m/S 750 mmHg 77%
    15:00 +11°C° 0 mm 8 m/S 750 mmHg 79%
    16:00 +10°C° 0 mm 8 m/S 750 mmHg 80%
    17:00 +10°C° 0 mm 8 m/S 750 mmHg 82%
    18:00 +10°C° 0 mm 8 m/S 750 mmHg 82%
    19:00 +10°C° 0 mm 9 m/S 750 mmHg 83%
    20:00 +10°C° 0 mm 9 m/S 750 mmHg 83%
    21:00 +10°C° 0 mm 9 m/S 750 mmHg 82%
    22:00 +10°C° 0 mm 9 m/S 750 mmHg 81%
    23:00 +10°C° 0 mm 9 m/S 750 mmHg 80%

    21 Januar, Sonntag

    Zeit Temperatur Niederschläge Wind Luftdruck Luftfeuchtigkeit
    00:00 +10°C° 0 mm 9 m/S 749 mmHg 81%
    01:00 +9°C° 0 mm 8 m/S 749 mmHg 83%
    02:00 +9°C° 0 mm 8 m/S 749 mmHg 84%
    03:00 +9°C° 0 mm 8 m/S 748 mmHg 83%
    04:00 +9°C° 0 mm 8 m/S 748 mmHg 82%
    05:00 +9°C° 0 mm 8 m/S 747 mmHg 81%
    06:00 +9°C° 0 mm 8 m/S 747 mmHg 80%
    07:00 +8°C° 0 mm 9 m/S 747 mmHg 78%
    08:00 +8°C° 0 mm 9 m/S 747 mmHg 76%
    09:00 +9°C° 0 mm 10 m/S 746 mmHg 72%
    10:00 +11°C° 0 mm 10 m/S 746 mmHg 68%
    11:00 +11°C° 0 mm 11 m/S 746 mmHg 63%
    12:00 +12°C° 0 mm 11 m/S 745 mmHg 63%
    13:00 +12°C° 0 mm 10 m/S 745 mmHg 63%
    14:00 +12°C° 0 mm 10 m/S 744 mmHg 63%
    15:00 +11°C° 0 mm 10 m/S 743 mmHg 65%
    16:00 +11°C° 0 mm 9 m/S 743 mmHg 67%
    17:00 +10°C° 0 mm 8 m/S 743 mmHg 69%
    18:00 +10°C° 0,2 mm 8 m/S 742 mmHg 71%
    19:00 +10°C° 0,2 mm 8 m/S 742 mmHg 74%
    20:00 +10°C° 0,2 mm 8 m/S 742 mmHg 76%
    21:00 +9°C° 0,5 mm 7 m/S 741 mmHg 78%
    22:00 +9°C° 0,5 mm 7 m/S 740 mmHg 80%
    23:00 +9°C° 0,5 mm 7 m/S 740 mmHg 82%
    Mehr zeigen